QPF
0.01 0.01 0.03 0.03 0.03 0.02 0.02 0.01 0.01 0.02 0.02 0.02 0.02 0.03 0.03 0.02 0.03 0.04 0.05 0.07 0.09 0.10 0.11 0.09 0.09 0.11 0.13 0.18 0.25 0.26 0.20 0.19 0.20 0.18 0.20 0.20 0.13 0.08 0.08 0.09 0.08 0.08 0.09
0.01 0.01 0.03 0.03 0.03 0.02 0.02 0.02 0.02 0.01 0.02 0.02 0.02 0.02 0.03 0.03 0.03 0.03 0.04 0.07 0.09 0.07 0.07 0.07 0.08 0.09 0.10 0.11 0.18 0.20 0.17 0.18 0.17 0.18 0.20 0.16 0.11 0.08 0.08 0.07 0.06 0.07 0.08
0.01 0.01 0.03 0.04 0.04 0.02 0.02 0.02 0.02 0.02 0.02 0.02 0.02 0.02 0.02 0.03 0.03 0.03 0.03 0.06 0.07 0.07 0.08 0.08 0.08 0.09 0.07 0.07 0.13 0.13 0.11 0.14 0.14 0.14 0.14 0.12 0.10 0.09 0.09 0.06 0.06 0.07 0.07
0.01 0.01 0.02 0.04 0.04 0.02 0.01 0.01 0.02 0.02 0.02 0.02 0.02 0.02 0.02 0.03 0.03 0.03 0.04 0.05 0.06 0.07 0.08 0.08 0.08 0.10 0.08 0.07 0.07 0.08 0.08 0.13 0.14 0.10 0.09 0.09 0.09 0.10 0.09 0.06 0.06 0.06 0.06
0.00 0.01 0.03 0.03 0.04 0.03 0.04 0.03 0.03 0.02 0.01 0.01 0.01 0.01 0.02 0.03 0.02 0.02 0.03 0.05 0.05 0.06 0.06 0.07 0.06 0.06 0.06 0.06 0.05 0.06 0.09 0.13 0.16 0.10 0.06 0.07 0.10 0.09 0.07 0.07 0.08 0.09 0.08
0.00 0.00 0.01 0.02 0.02 0.02 0.03 0.03 0.03 0.03 0.02 0.01 0.01 0.01 0.02 0.02 0.02 0.02 0.03 0.04 0.04 0.05 0.05 0.06 0.05 0.05 0.06 0.05 0.05 0.07 0.08 0.14 0.17 0.11 0.07 0.06 0.08 0.08 0.07 0.06 0.08 0.10 0.09
0.00 0.01 0.01 0.01 0.02 0.02 0.03 0.03 0.03 0.04 0.03 0.01 0.01 0.03 0.03 0.02 0.02 0.02 0.03 0.05 0.06 0.06 0.06 0.06 0.04 0.04 0.06 0.06 0.07 0.09 0.11 0.19 0.20 0.12 0.07 0.06 0.06 0.07 0.08 0.07 0.08 0.08 0.09
0.00 0.00 0.01 0.02 0.01 0.02 0.03 0.03 0.02 0.02 0.02 0.02 0.02 0.02 0.01 0.02 0.02 0.02 0.03 0.06 0.09 0.10 0.09 0.06 0.04 0.05 0.07 0.07 0.07 0.11 0.12 0.16 0.26 0.17 0.11 0.08 0.07 0.08 0.09 0.09 0.08 0.08 0.10
0.01 0.02 0.03 0.04 0.01 0.02 0.03 0.03 0.02 0.02 0.02 0.02 0.02 0.02 0.01 0.01 0.03 0.03 0.04 0.07 0.11 0.14 0.10 0.07 0.05 0.06 0.06 0.07 0.07 0.10 0.11 0.15 0.26 0.20 0.14 0.12 0.13 0.12 0.11 0.11 0.09 0.08 0.08
0.01 0.02 0.03 0.04 0.03 0.02 0.03 0.02 0.02 0.02 0.02 0.02 0.02 0.02 0.02 0.01 0.03 0.05 0.05 0.09 0.15 0.13 0.10 0.08 0.07 0.06 0.06 0.07 0.09 0.09 0.10 0.15 0.25 0.20 0.15 0.14 0.17 0.15 0.12 0.09 0.08 0.08 0.09
0.01 0.01 0.02 0.03 0.04 0.04 0.02 0.02 0.02 0.03 0.03 0.03 0.02 0.02 0.02 0.02 0.03 0.05 0.07 0.12 0.14 0.11 0.09 0.08 0.07 0.07 0.05 0.06 0.10 0.07 0.08 0.11 0.23 0.21 0.16 0.14 0.15 0.14 0.11 0.08 0.08 0.07 0.08
0.01 0.01 0.01 0.02 0.03 0.04 0.03 0.04 0.05 0.04 0.04 0.03 0.03 0.02 0.03 0.02 0.02 0.04 0.07 0.08 0.09 0.09 0.10 0.09 0.08 0.06 0.05 0.07 0.09 0.06 0.05 0.07 0.18 0.18 0.14 0.11 0.11 0.11 0.11 0.10 0.08 0.07 0.06
0.00 0.00 0.01 0.01 0.02 0.03 0.03 0.06 0.06 0.05 0.05 0.04 0.03 0.03 0.02 0.01 0.01 0.02 0.04 0.06 0.07 0.09 0.10 0.08 0.06 0.06 0.06 0.07 0.07 0.04 0.03 0.04 0.13 0.13 0.08 0.07 0.08 0.08 0.09 0.10 0.10 0.07 0.06
0.00 0.00 0.01 0.01 0.01 0.02 0.05 0.05 0.07 0.04 0.03 0.02 0.03 0.03 0.03 0.02 0.02 0.02 0.04 0.06 0.06 0.08 0.08 0.05 0.06 0.07 0.07 0.07 0.06 0.03 0.03 0.04 0.08 0.08 0.07 0.06 0.07 0.07 0.07 0.06 0.09 0.08 0.06
0.00 0.01 0.00 0.01 0.01 0.02 0.04 0.09 0.11 0.07 0.04 0.02 0.02 0.02 0.03 0.03 0.03 0.03 0.04 0.05 0.05 0.07 0.07 0.06 0.06 0.07 0.08 0.08 0.06 0.03 0.02 0.03 0.05 0.06 0.06 0.05 0.05 0.06 0.06 0.05 0.07 0.07 0.07
0.01 0.01 0.01 0.01 0.01 0.02 0.03 0.08 0.16 0.13 0.06 0.03 0.02 0.01 0.01 0.02 0.03 0.03 0.04 0.06 0.06 0.06 0.07 0.05 0.05 0.07 0.08 0.08 0.06 0.04 0.03 0.04 0.05 0.05 0.05 0.04 0.04 0.04 0.04 0.05 0.05 0.05 0.07
0.01 0.02 0.03 0.02 0.02 0.02 0.02 0.05 0.11 0.17 0.09 0.03 0.01 0.01 0.01 0.01 0.02 0.03 0.03 0.06 0.07 0.06 0.05 0.04 0.04 0.05 0.07 0.09 0.07 0.06 0.07 0.06 0.05 0.05 0.04 0.03 0.03 0.03 0.04 0.05 0.04 0.05 0.05
0.02 0.03 0.04 0.04 0.03 0.03 0.03 0.05 0.09 0.16 0.13 0.06 0.03 0.02 0.02 0.02 0.02 0.02 0.03 0.06 0.08 0.06 0.04 0.04 0.03 0.04 0.06 0.10 0.09 0.09 0.10 0.08 0.06 0.05 0.04 0.02 0.03 0.04 0.04 0.04 0.04 0.04 0.05
0.03 0.04 0.05 0.06 0.06 0.05 0.04 0.05 0.08 0.13 0.13 0.09 0.06 0.05 0.04 0.03 0.02 0.03 0.04 0.07 0.08 0.07 0.06 0.05 0.05 0.05 0.06 0.09 0.09 0.11 0.12 0.09 0.06 0.05 0.03 0.03 0.03 0.04 0.05 0.04 0.04 0.03 0.04
0.05 0.09 0.09 0.07 0.07 0.07 0.05 0.05 0.10 0.12 0.11 0.10 0.10 0.09 0.05 0.04 0.03 0.02 0.03 0.05 0.07 0.09 0.08 0.08 0.07 0.07 0.08 0.10 0.10 0.11 0.12 0.09 0.07 0.05 0.04 0.03 0.02 0.02 0.03 0.03 0.04 0.04 0.04
0.04 0.05 0.07 0.07 0.06 0.06 0.06 0.06 0.11 0.15 0.09 0.09 0.11 0.10 0.07 0.04 0.03 0.03 0.03 0.04 0.05 0.07 0.08 0.09 0.10 0.10 0.10 0.09 0.10 0.10 0.09 0.07 0.06 0.05 0.05 0.04 0.03 0.02 0.02 0.03 0.03 0.03 0.04
0.04 0.05 0.07 0.07 0.06 0.05 0.04 0.06 0.09 0.12 0.10 0.08 0.09 0.10 0.08 0.06 0.05 0.04 0.05 0.04 0.05 0.06 0.07 0.08 0.10 0.11 0.11 0.11 0.10 0.09 0.09 0.08 0.07 0.06 0.05 0.04 0.04 0.03 0.03 0.03 0.02 0.03 0.04
0.02 0.03 0.05 0.05 0.06 0.07 0.07 0.08 0.08 0.08 0.10 0.10 0.09 0.11 0.12 0.08 0.07 0.06 0.06 0.06 0.06 0.06 0.08 0.08 0.08 0.09 0.09 0.10 0.10 0.09 0.08 0.07 0.07 0.06 0.05 0.04 0.03 0.04 0.04 0.04 0.04 0.03 0.03
0.02 0.02 0.05 0.05 0.04 0.05 0.05 0.06 0.08 0.08 0.09 0.09 0.09 0.09 0.12 0.10 0.07 0.06 0.05 0.06 0.09 0.10 0.10 0.10 0.07 0.07 0.08 0.08 0.07 0.06 0.06 0.06 0.06 0.06 0.04 0.04 0.03 0.02 0.02 0.03 0.03 0.04 0.03
0.02 0.02 0.04 0.04 0.02 0.03 0.04 0.04 0.06 0.05 0.05 0.06 0.06 0.07 0.08 0.08 0.08 0.07 0.06 0.07 0.10 0.11 0.11 0.11 0.09 0.06 0.07 0.08 0.06 0.05 0.05 0.06 0.05 0.04 0.05 0.05 0.04 0.02 0.01 0.01 0.01 0.01 0.02
0.03 0.03 0.03 0.03 0.03 0.02 0.03 0.04 0.04 0.03 0.03 0.04 0.07 0.06 0.05 0.06 0.09 0.08 0.07 0.08 0.11 0.12 0.10 0.09 0.08 0.06 0.06 0.07 0.07 0.06 0.04 0.05 0.04 0.04 0.04 0.04 0.04 0.03 0.03 0.02 0.02 0.01 0.02
MSLP
1004.53 1004.47 1004.81 1005.46 1006.27 1007.06 1007.71 1008.12 1008.30 1008.28 1008.16 1008.02 1007.95 1007.99 1008.12 1008.31 1008.49 1008.61 1008.63 1008.56 1008.44 1008.30 1008.22 1008.23 1008.36 1008.63 1009.00 1009.46 1009.96 1010.47 1010.96 1011.43 1011.86 1012.24 1012.58 1012.87 1013.13 1013.35 1013.55 1013.75 1013.96 1014.18 1014.43
1004.49 1004.57 1005.00 1005.69 1006.49 1007.25 1007.84 1008.20 1008.32 1008.26 1008.11 1007.97 1007.91 1007.96 1008.10 1008.29 1008.47 1008.59 1008.61 1008.55 1008.43 1008.31 1008.25 1008.30 1008.47 1008.76 1009.16 1009.63 1010.13 1010.64 1011.13 1011.60 1012.03 1012.42 1012.78 1013.09 1013.37 1013.61 1013.83 1014.04 1014.25 1014.48 1014.72
1004.36 1004.59 1005.12 1005.86 1006.67 1007.39 1007.93 1008.24 1008.33 1008.25 1008.09 1007.96 1007.90 1007.95 1008.09 1008.26 1008.42 1008.51 1008.52 1008.45 1008.36 1008.28 1008.27 1008.37 1008.60 1008.94 1009.38 1009.87 1010.39 1010.90 1011.40 1011.86 1012.29 1012.69 1013.06 1013.38 1013.67 1013.92 1014.14 1014.34 1014.55 1014.77 1015.01
1004.17 1004.56 1005.19 1005.97 1006.77 1007.47 1007.97 1008.25 1008.31 1008.23 1008.09 1007.97 1007.92 1007.96 1008.08 1008.22 1008.35 1008.41 1008.40 1008.34 1008.27 1008.24 1008.30 1008.47 1008.76 1009.16 1009.64 1010.17 1010.70 1011.23 1011.72 1012.19 1012.63 1013.03 1013.39 1013.72 1014.00 1014.24 1014.46 1014.66 1014.87 1015.09 1015.33
1003.97 1004.48 1005.20 1006.01 1006.81 1007.48 1007.95 1008.20 1008.26 1008.19 1008.07 1007.97 1007.94 1007.98 1008.08 1008.19 1008.28 1008.31 1008.29 1008.24 1008.20 1008.22 1008.35 1008.58 1008.94 1009.40 1009.92 1010.48 1011.03 1011.56 1012.07 1012.54 1012.98 1013.38 1013.75 1014.07 1014.35 1014.59 1014.80 1014.99 1015.19 1015.42 1015.68
1003.81 1004.42 1005.18 1006.00 1006.78 1007.41 1007.85 1008.08 1008.14 1008.10 1008.01 1007.95 1007.94 1007.99 1008.08 1008.16 1008.22 1008.23 1008.20 1008.17 1008.16 1008.23 1008.41 1008.71 1009.12 1009.62 1010.17 1010.74 1011.31 1011.85 1012.36 1012.84 1013.29 1013.71 1014.08 1014.41 1014.69 1014.92 1015.12 1015.32 1015.53 1015.77 1016.04
1003.75 1004.40 1005.17 1005.97 1006.70 1007.28 1007.68 1007.90 1007.97 1007.96 1007.91 1007.89 1007.91 1007.97 1008.05 1008.12 1008.16 1008.16 1008.13 1008.11 1008.13 1008.24 1008.47 1008.80 1009.25 1009.77 1010.33 1010.91 1011.48 1012.03 1012.56 1013.05 1013.52 1013.96 1014.35 1014.69 1014.98 1015.22 1015.43 1015.64 1015.85 1016.11 1016.41
1003.78 1004.43 1005.17 1005.92 1006.58 1007.11 1007.47 1007.68 1007.76 1007.78 1007.78 1007.79 1007.84 1007.92 1008.00 1008.06 1008.08 1008.07 1008.04 1008.03 1008.08 1008.22 1008.47 1008.84 1009.29 1009.82 1010.38 1010.96 1011.53 1012.09 1012.63 1013.15 1013.65 1014.11 1014.54 1014.91 1015.22 1015.48 1015.71 1015.93 1016.16 1016.44 1016.75
1003.90 1004.52 1005.21 1005.88 1006.47 1006.94 1007.26 1007.45 1007.56 1007.60 1007.64 1007.69 1007.76 1007.84 1007.91 1007.95 1007.95 1007.93 1007.90 1007.90 1007.97 1008.13 1008.40 1008.78 1009.24 1009.77 1010.33 1010.90 1011.47 1012.04 1012.60 1013.15 1013.68 1014.19 1014.65 1015.06 1015.41 1015.71 1015.96 1016.21 1016.46 1016.75 1017.07
1004.07 1004.64 1005.26 1005.86 1006.38 1006.79 1007.08 1007.27 1007.39 1007.47 1007.53 1007.60 1007.68 1007.75 1007.79 1007.80 1007.77 1007.72 1007.68 1007.69 1007.77 1007.96 1008.25 1008.64 1009.12 1009.65 1010.21 1010.79 1011.37 1011.95 1012.53 1013.10 1013.67 1014.22 1014.73 1015.19 1015.58 1015.92 1016.21 1016.48 1016.75 1017.04 1017.37
1004.24 1004.78 1005.35 1005.88 1006.34 1006.71 1006.98 1007.17 1007.30 1007.40 1007.48 1007.56 1007.62 1007.65 1007.65 1007.61 1007.53 1007.45 1007.40 1007.40 1007.50 1007.71 1008.04 1008.46 1008.97 1009.52 1010.10 1010.70 1011.29 1011.89 1012.49 1013.09 1013.69 1014.27 1014.82 1015.32 1015.75 1016.13 1016.46 1016.76 1017.06 1017.36 1017.68
1004.41 1004.93 1005.46 1005.95 1006.37 1006.70 1006.96 1007.16 1007.31 1007.42 1007.51 1007.57 1007.60 1007.58 1007.51 1007.40 1007.26 1007.14 1007.07 1007.08 1007.20 1007.45 1007.82 1008.30 1008.86 1009.46 1010.08 1010.71 1011.33 1011.95 1012.56 1013.18 1013.79 1014.38 1014.95 1015.48 1015.95 1016.37 1016.74 1017.08 1017.39 1017.71 1018.02
1004.58 1005.11 1005.62 1006.07 1006.47 1006.79 1007.04 1007.24 1007.40 1007.52 1007.60 1007.63 1007.61 1007.52 1007.38 1007.20 1007.00 1006.84 1006.75 1006.77 1006.93 1007.23 1007.67 1008.22 1008.85 1009.52 1010.20 1010.88 1011.53 1012.17 1012.79 1013.40 1014.00 1014.59 1015.16 1015.69 1016.18 1016.63 1017.04 1017.41 1017.76 1018.09 1018.41
1004.79 1005.33 1005.83 1006.27 1006.64 1006.94 1007.19 1007.39 1007.55 1007.66 1007.72 1007.72 1007.64 1007.49 1007.27 1007.02 1006.78 1006.58 1006.49 1006.54 1006.74 1007.11 1007.63 1008.27 1008.99 1009.74 1010.50 1011.22 1011.91 1012.56 1013.18 1013.76 1014.33 1014.89 1015.43 1015.95 1016.44 1016.91 1017.35 1017.76 1018.15 1018.51 1018.84
1005.08 1005.64 1006.12 1006.53 1006.87 1007.15 1007.37 1007.56 1007.70 1007.80 1007.83 1007.79 1007.66 1007.46 1007.19 1006.90 1006.62 1006.42 1006.34 1006.42 1006.69 1007.14 1007.74 1008.48 1009.28 1010.12 1010.95 1011.73 1012.45 1013.10 1013.70 1014.24 1014.76 1015.26 1015.75 1016.23 1016.71 1017.19 1017.65 1018.10 1018.52 1018.92 1019.29
1005.49 1006.03 1006.48 1006.85 1007.14 1007.37 1007.55 1007.70 1007.81 1007.88 1007.88 1007.81 1007.65 1007.42 1007.13 1006.82 1006.55 1006.37 1006.33 1006.46 1006.79 1007.31 1008.00 1008.81 1009.70 1010.62 1011.51 1012.33 1013.08 1013.73 1014.29 1014.79 1015.25 1015.67 1016.10 1016.53 1016.98 1017.44 1017.92 1018.39 1018.86 1019.30 1019.70
1006.00 1006.51 1006.91 1007.20 1007.42 1007.58 1007.70 1007.79 1007.85 1007.88 1007.85 1007.75 1007.59 1007.35 1007.08 1006.80 1006.56 1006.43 1006.44 1006.63 1007.02 1007.60 1008.35 1009.23 1010.18 1011.15 1012.09 1012.95 1013.71 1014.36 1014.90 1015.35 1015.74 1016.10 1016.45 1016.82 1017.22 1017.67 1018.14 1018.63 1019.13 1019.60 1020.05
1006.59 1007.03 1007.35 1007.56 1007.68 1007.75 1007.79 1007.81 1007.81 1007.79 1007.74 1007.63 1007.47 1007.27 1007.04 1006.81 1006.64 1006.57 1006.65 1006.90 1007.33 1007.95 1008.74 1009.65 1010.63 1011.63 1012.60 1013.49 1014.27 1014.92 1015.45 1015.87 1016.21 1016.51 1016.80 1017.11 1017.46 1017.87 1018.33 1018.82 1019.33 1019.83 1020.31
1007.18 1007.54 1007.76 1007.88 1007.91 1007.89 1007.84 1007.78 1007.72 1007.66 1007.58 1007.47 1007.34 1007.18 1007.01 1006.86 1006.77 1006.77 1006.91 1007.20 1007.67 1008.30 1009.09 1010.00 1010.98 1011.99 1012.97 1013.89 1014.69 1015.36 1015.90 1016.32 1016.65 1016.91 1017.15 1017.41 1017.72 1018.08 1018.50 1018.98 1019.49 1020.00 1020.49
1007.71 1007.98 1008.12 1008.15 1008.10 1008.00 1007.87 1007.75 1007.63 1007.52 1007.43 1007.32 1007.21 1007.11 1007.01 1006.94 1006.92 1006.99 1007.17 1007.49 1007.96 1008.58 1009.34 1010.21 1011.17 1012.18 1013.17 1014.10 1014.94 1015.66 1016.24 1016.69 1017.03 1017.29 1017.52 1017.74 1018.00 1018.32 1018.70 1019.14 1019.63 1020.13 1020.62
1008.13 1008.32 1008.39 1008.36 1008.25 1008.09 1007.92 1007.75 1007.59 1007.45 1007.33 1007.23 1007.15 1007.08 1007.04 1007.03 1007.08 1007.19 1007.40 1007.72 1008.17 1008.74 1009.45 1010.28 1011.19 1012.17 1013.17 1014.13 1015.02 1015.80 1016.44 1016.96 1017.35 1017.64 1017.87 1018.09 1018.32 1018.60 1018.94 1019.34 1019.79 1020.26 1020.74
1008.40 1008.53 1008.57 1008.51 1008.38 1008.21 1008.01 1007.82 1007.63 1007.47 1007.34 1007.23 1007.16 1007.12 1007.12 1007.15 1007.23 1007.36 1007.57 1007.87 1008.27 1008.79 1009.42 1010.18 1011.05 1012.00 1013.00 1013.99 1014.93 1015.79 1016.52 1017.12 1017.58 1017.94 1018.20 1018.44 1018.66 1018.92 1019.22 1019.57 1019.98 1020.42 1020.87
1008.54 1008.65 1008.67 1008.62 1008.51 1008.35 1008.17 1007.97 1007.78 1007.61 1007.47 1007.36 1007.28 1007.24 1007.25 1007.29 1007.37 1007.50 1007.68 1007.94 1008.28 1008.73 1009.29 1009.98 1010.79 1011.71 1012.70 1013.72 1014.72 1015.65 1016.47 1017.16 1017.71 1018.14 1018.46 1018.72 1018.96 1019.21 1019.49 1019.81 1020.19 1020.60 1021.03
1008.61 1008.70 1008.73 1008.71 1008.64 1008.52 1008.37 1008.20 1008.03 1007.86 1007.70 1007.58 1007.49 1007.44 1007.43 1007.45 1007.52 1007.62 1007.76 1007.97 1008.25 1008.62 1009.12 1009.74 1010.50 1011.39 1012.37 1013.40 1014.43 1015.42 1016.31 1017.08 1017.71 1018.20 1018.59 1018.90 1019.17 1019.43 1019.71 1020.03 1020.39 1020.78 1021.20
1008.68 1008.74 1008.78 1008.79 1008.77 1008.70 1008.61 1008.48 1008.33 1008.17 1008.01 1007.88 1007.77 1007.70 1007.66 1007.66 1007.69 1007.76 1007.86 1008.01 1008.24 1008.56 1008.99 1009.56 1010.27 1011.12 1012.07 1013.09 1014.13 1015.14 1016.07 1016.88 1017.56 1018.11 1018.55 1018.91 1019.22 1019.52 1019.82 1020.15 1020.52 1020.92 1021.35
1008.79 1008.82 1008.86 1008.88 1008.90 1008.88 1008.83 1008.74 1008.63 1008.49 1008.35 1008.21 1008.09 1008.00 1007.94 1007.91 1007.92 1007.95 1008.02 1008.14 1008.33 1008.61 1009.00 1009.52 1010.19 1010.99 1011.90 1012.88 1013.89 1014.87 1015.79 1016.60 1017.29 1017.87 1018.34 1018.74 1019.09 1019.43 1019.78 1020.16 1020.56 1020.99 1021.43
Thickness
5803 5800 5786 5783 5781 5779 5777 5775 5774 5773 5771 5770 5769 5769 5768 5768 5768 5768 5767 5767 5767 5766 5766 5766 5766 5766 5765 5765 5765 5764 5764 5764 5765 5765 5763 5761 5760 5759 5758 5757 5756 5756 5753
5805 5798 5785 5782 5779 5777 5775 5773 5772 5771 5769 5768 5767 5767 5766 5766 5766 5765 5765 5764 5765 5764 5764 5764 5764 5763 5763 5763 5763 5763 5763 5763 5764 5765 5762 5760 5759 5757 5756 5755 5755 5754 5751
5802 5795 5786 5781 5778 5776 5774 5772 5770 5769 5767 5766 5766 5765 5764 5764 5764 5763 5763 5763 5762 5762 5762 5762 5761 5761 5761 5760 5760 5760 5760 5761 5761 5762 5761 5761 5758 5756 5754 5753 5752 5751 5749
5800 5794 5787 5779 5777 5774 5772 5770 5768 5767 5766 5765 5764 5763 5763 5762 5762 5762 5761 5761 5760 5760 5760 5759 5759 5758 5758 5758 5758 5758 5758 5759 5759 5760 5761 5761 5759 5754 5752 5751 5750 5749 5747
5797 5792 5784 5778 5775 5773 5770 5768 5767 5765 5764 5763 5762 5761 5761 5760 5760 5760 5759 5759 5758 5758 5758 5757 5756 5756 5756 5756 5756 5756 5757 5757 5758 5759 5761 5759 5757 5753 5751 5750 5748 5747 5745
5796 5792 5784 5777 5773 5771 5769 5767 5765 5763 5762 5761 5760 5759 5759 5758 5758 5758 5757 5757 5756 5756 5756 5755 5754 5753 5753 5753 5754 5754 5755 5756 5758 5760 5759 5758 5755 5751 5750 5748 5747 5745 5744
5796 5792 5784 5775 5772 5769 5767 5765 5763 5761 5760 5759 5758 5757 5757 5756 5756 5756 5755 5755 5755 5754 5754 5753 5752 5752 5751 5751 5751 5752 5753 5755 5758 5759 5757 5756 5753 5749 5748 5747 5745 5743 5742
5795 5790 5783 5774 5770 5767 5765 5762 5760 5759 5758 5757 5756 5755 5755 5754 5754 5754 5754 5754 5754 5754 5753 5752 5751 5750 5750 5749 5749 5750 5751 5754 5756 5757 5755 5753 5749 5747 5746 5744 5743 5741 5741
5794 5789 5784 5778 5771 5767 5764 5761 5759 5757 5756 5755 5754 5754 5753 5752 5752 5753 5754 5754 5754 5754 5753 5751 5750 5749 5748 5747 5747 5747 5750 5752 5755 5754 5752 5750 5746 5744 5743 5742 5741 5740 5739
5791 5788 5783 5779 5775 5771 5767 5761 5758 5756 5754 5753 5752 5752 5751 5752 5752 5753 5754 5754 5754 5753 5752 5750 5748 5747 5746 5745 5745 5745 5747 5749 5753 5751 5749 5746 5743 5742 5741 5740 5739 5738 5737
5786 5785 5782 5779 5775 5772 5769 5763 5759 5755 5754 5753 5752 5750 5751 5754 5754 5754 5753 5752 5751 5751 5750 5748 5747 5746 5745 5744 5743 5744 5745 5748 5749 5747 5745 5741 5739 5739 5738 5738 5736 5735 5735
5782 5782 5781 5778 5775 5772 5769 5764 5761 5759 5756 5755 5754 5752 5752 5752 5752 5752 5749 5749 5748 5748 5748 5747 5745 5745 5745 5746 5744 5743 5746 5746 5745 5744 5740 5737 5736 5736 5736 5735 5734 5733 5733
5783 5780 5780 5777 5773 5771 5767 5764 5761 5759 5756 5755 5752 5751 5750 5750 5751 5750 5750 5749 5748 5748 5748 5746 5746 5746 5746 5745 5745 5745 5744 5745 5743 5741 5737 5734 5734 5734 5733 5732 5732 5731 5731
5783 5779 5778 5775 5771 5768 5766 5763 5760 5758 5756 5755 5751 5750 5749 5749 5748 5748 5747 5747 5747 5747 5745 5746 5745 5744 5743 5743 5743 5743 5742 5742 5741 5739 5734 5732 5732 5732 5731 5730 5730 5729 5729
5779 5776 5775 5772 5768 5764 5762 5760 5759 5755 5755 5752 5749 5748 5747 5747 5746 5746 5745 5744 5745 5744 5743 5743 5742 5741 5741 5741 5741 5741 5740 5739 5738 5737 5734 5731 5730 5729 5729 5728 5728 5727 5727
5776 5774 5772 5768 5765 5761 5758 5756 5755 5754 5750 5750 5747 5746 5744 5744 5743 5743 5743 5742 5742 5741 5741 5741 5740 5739 5739 5738 5738 5737 5737 5736 5734 5734 5734 5731 5728 5727 5727 5726 5726 5725 5725
5774 5771 5768 5765 5762 5758 5756 5754 5752 5751 5749 5747 5745 5743 5741 5741 5740 5740 5741 5740 5739 5739 5737 5737 5737 5737 5736 5736 5735 5735 5734 5733 5733 5732 5732 5731 5729 5726 5725 5724 5723 5723 5723
5772 5768 5765 5764 5759 5755 5753 5751 5751 5749 5747 5745 5743 5741 5739 5738 5737 5737 5738 5738 5736 5736 5736 5735 5736 5735 5733 5733 5732 5733 5732 5731 5730 5729 5730 5729 5729 5728 5725 5722 5721 5721 5720
5769 5764 5760 5758 5755 5752 5750 5749 5748 5745 5744 5743 5741 5740 5737 5735 5735 5735 5735 5734 5734 5734 5734 5735 5734 5733 5730 5729 5730 5729 5730 5730 5729 5728 5728 5728 5727 5726 5725 5722 5720 5719 5719
5766 5761 5756 5752 5750 5749 5747 5745 5745 5743 5742 5740 5739 5736 5734 5734 5733 5733 5732 5731 5732 5732 5731 5730 5729 5728 5728 5727 5728 5727 5727 5727 5727 5727 5727 5726 5725 5725 5724 5723 5721 5719 5717
5761 5756 5752 5748 5746 5745 5743 5742 5741 5739 5739 5738 5737 5733 5732 5731 5731 5730 5731 5728 5729 5728 5727 5728 5727 5726 5725 5725 5724 5722 5723 5725 5724 5724 5725 5724 5724 5723 5721 5720 5720 5719 5717
5756 5753 5749 5745 5743 5742 5740 5738 5737 5736 5736 5736 5735 5731 5730 5729 5728 5729 5727 5727 5726 5725 5724 5723 5723 5724 5723 5723 5721 5719 5716 5717 5719 5722 5721 5721 5721 5721 5720 5719 5717 5716 5716
5753 5749 5747 5743 5741 5739 5737 5736 5734 5732 5732 5731 5730 5728 5727 5726 5725 5725 5724 5724 5723 5724 5722 5721 5720 5719 5719 5720 5720 5718 5714 5712 5715 5717 5717 5718 5717 5717 5717 5717 5715 5714 5713
5750 5747 5743 5740 5738 5736 5734 5732 5729 5727 5725 5725 5725 5724 5723 5723 5723 5722 5722 5721 5721 5721 5719 5719 5718 5718 5716 5716 5717 5716 5717 5717 5712 5710 5713 5715 5715 5713 5714 5714 5714 5712 5710
5747 5743 5739 5735 5733 5731 5729 5728 5725 5724 5723 5723 5722 5720 5720 5720 5719 5719 5718 5717 5717 5717 5716 5715 5714 5714 5715 5714 5714 5714 5713 5712 5713 5710 5707 5709 5710 5712 5712 5712 5711 5711 5708
5742 5739 5735 5730 5726 5724 5723 5723 5720 5719 5718 5717 5716 5716 5717 5717 5717 5716 5716 5715 5715 5714 5713 5712 5711 5711 5711 5710 5711 5711 5711 5709 5709 5709 5706 5705 5705 5708 5709 5709 5709 5709 5707